星链-1792 (STARLINK-1792 )

导读 | 星芒AI

STARLINK-1792 是 SpaceX Starlink 卫星互联网项目中的第 1792 颗卫星。该卫星属于低轨通信卫星群,旨在为全球用户提供高速互联网服务。它于 2023 年发射,运行在约 550 公里的轨道高度,采用先进推进系统和激光通信技术,以提升网络效率和减少延迟。Starlink 项目致力于改善偏远地区网络覆盖,支持全球用户接入互联网。

基本信息
目录编号:
46693
目录名称:
STARLINK-1792
国际标识:
2020-073Z
轨道中心:
EARTH
卫星名称:
星链-1792
卫星全名:
星链-1792 (STARLINK-1792 )
卫星状态:
已陨落 最后检测时间 2025-09-07
发射日期:
2020-10-18 UTC
国别 :
美国 (US)
星等 :
--
轨道信息
数据来源 国际轨道数据
星历时间: 2025-09-07T18:13:50+0800
轨道信息已过期52天
半长轴: 6542.777km
偏心率: 0.0002197
轨道倾角: 52.996°
近地点辐角 292.732°
升交点赤经 248.242°
平近点角 67.349°
近地点: 163.204km
远地点: 166.08km
周期: 87.781分钟
每日圈数: 16.404373
详细信息
固有亮度:
5
最大亮度:
2.5
卫星平台:
Starlink V1.0
覆盖范围:
全球
运营商:
太空探索技术公司
运营商所在国:
美国
制造商(研发单位):
太空探索技术公司
制造商所在国:
美国
使用方式:
暂无
卫星简介
星链(Starlink)计划是由太空探索技术公司(SpaceX)提出的一个巨型低轨卫星互联网星座项目,计划在2019年至2024年间在太空搭建由约1.2万颗卫星组成的“星链”网络,其中1584颗将部署在地球上空550千米处的近地轨道,并从2020年开始工作。该卫星仍在工作。